Eagle Creek, IN

5:52 PM EDT on July 24, 2017 (GMT -0400)
Eagle Creek

Weather History for KEYE - June, 2013

Change the Weather History Date:

Tuesday, June 25, 2013

  Actual Average Record
Temperature  
Mean Temperature 78 °F 75 °F  
Max Temperature 88 °F 83 °F 91 °F (1998)
Min Temperature 68 °F 66 °F 56 °F (2017)
Degree Days  
Heating Degree Days 0 0  
Month to date heating degree days 14 12  
Since 1 June heating degree days 14 12  
Since 1 July heating degree days 5564 5346  
Cooling Degree Days 13 10  
Month to date cooling degree days 166 184  
Year to date cooling degree days 277 268  
Since 1 June cooling degree days 166 184  
Growing Degree Days 28 (Base 50)    
Moisture  
Dew Point 68 °F    
Average Humidity 61    
Maximum Humidity 97    
Minimum Humidity 24    
Precipitation  
Precipitation 0.19 in 0.19 in 0.79 in (1992)
Month to date precipitation 4.00 3.70  
Year to date precipitation 22.84 20.51  
Sea Level Pressure  
Sea Level Pressure 29.96 in    
Wind  
Wind Speed 6 mph (SW)    
Max Wind Speed 31 mph    
Max Gust Speed 43 mph    
Visibility 9 miles    
Events Rain , Thunderstorm    
T = Trace of Precipitation, MM = Missing Value Source: NWS Daily Summary

Daily Weather History Graph

Daily Weather History Graph

Search for Another Location

Airport or City:

Trip Planner

Search our weather history database for the weather conditions in past years. The results will help you decide how hot, cold, wet, or windy it might be!

Date:

Astronomy

Jun. 25, 2013 Rise Set
Actual Time 6:18 AM EDT 9:17 PM EDT
Civil Twilight 5:45 AM EDT 9:50 PM EDT
Nautical Twilight 5:04 AM EDT 10:31 PM EDT
Astronomical Twilight 4:15 AM EDT 11:19 PM EDT
Moon 11:02 PM EDT (6/25) 8:57 AM EDT (6/25)
Length of Visible Light 16h 04m
Length of Day
14h 59m
Waning Gibbous, 93% of the Moon is Illuminated
Jun 25
Waning Gibbous
Jun 30
Last Quarter
Jul 8
New
Jul 15
First Quarter
Jul 22
Full

Hourly Weather History & Observations

Time (EDT) Temp. Heat Index Dew Point Humidity Pressure Visibility Wind Dir Wind Speed Gust Speed Precip Events Conditions
12:53 AM 72.0 °F - 70.0 °F 93% 30.00 in 7.0 mi Variable 5.8 mph - N/A   Clear
1:53 AM 72.0 °F - 70.0 °F 93% 29.99 in 7.0 mi South 4.6 mph - N/A   Clear
2:53 AM 71.1 °F - 69.1 °F 93% 30.00 in 7.0 mi SSE 3.5 mph - N/A   Clear
3:53 AM 70.0 °F - 68.0 °F 93% 30.00 in 8.0 mi South 3.5 mph - N/A   Clear
4:53 AM 69.1 °F - 66.9 °F 93% 30.01 in 9.0 mi South 3.5 mph - N/A   Clear
5:53 AM 70.0 °F - 66.9 °F 90% 30.01 in 10.0 mi South 3.5 mph - N/A   Clear
6:53 AM 69.1 °F - 66.9 °F 93% 30.01 in 9.0 mi South 5.8 mph - N/A   Clear
7:53 AM 71.1 °F - 68.0 °F 90% 30.00 in 9.0 mi SSW 4.6 mph - N/A   Clear
8:53 AM 73.9 °F - 70.0 °F 87% 29.99 in 10.0 mi SSW 8.1 mph - N/A   Clear
9:53 AM 78.1 °F - 71.1 °F 79% 29.99 in 10.0 mi SW 5.8 mph - N/A   Clear
10:50 AM 68.0 °F - 30.2 °F 24% 30.10 in 10.0 mi Calm Calm - N/A   Partly Cloudy
10:53 AM 80.1 °F 83.8 °F 72.0 °F 76% 29.99 in 10.0 mi SW 8.1 mph - N/A   Clear
11:53 AM 81.0 °F 85.2 °F 72.0 °F 74% 30.01 in 10.0 mi Calm Calm - N/A   Clear
12:53 PM 82.9 °F 88.0 °F 72.0 °F 69% 29.99 in 10.0 mi SW 8.1 mph - N/A   Partly Cloudy
1:53 PM 84.9 °F 90.7 °F 72.0 °F 65% 29.97 in 10.0 mi SW 8.1 mph - N/A   Partly Cloudy
2:53 PM 86.0 °F 90.7 °F 70.0 °F 59% 29.95 in 10.0 mi WSW 9.2 mph 17.3 mph N/A   Scattered Clouds
3:53 PM 87.1 °F 90.6 °F 68.0 °F 53% 29.93 in 10.0 mi WSW 9.2 mph 20.7 mph N/A   Partly Cloudy
4:53 PM 87.1 °F 91.3 °F 69.1 °F 55% 29.91 in 10.0 mi WSW 10.4 mph 19.6 mph N/A   Partly Cloudy
5:53 PM 86.0 °F 90.7 °F 70.0 °F 59% 29.89 in 10.0 mi SW 10.4 mph 17.3 mph N/A   Partly Cloudy
6:53 PM 84.0 °F 88.4 °F 70.0 °F 63% 29.88 in 10.0 mi SW 8.1 mph - N/A   Mostly Cloudy
7:53 PM 82.9 °F 87.5 °F 71.1 °F 67% 29.86 in 10.0 mi SSW 6.9 mph - N/A   Clear
8:53 PM 81.0 °F 85.8 °F 73.0 °F 77% 29.86 in 10.0 mi SSW 5.8 mph - N/A   Clear
9:53 PM 81.0 °F 85.8 °F 73.0 °F 77% 29.88 in 10.0 mi WSW 6.9 mph - N/A   Partly Cloudy
10:03 PM 75.2 °F - 64.4 °F 69% 29.92 in 10.0 mi WNW 20.7 mph 42.6 mph N/A   Squalls
10:09 PM 75.2 °F - 64.4 °F 69% 29.93 in 9.0 mi WNW 16.1 mph 42.6 mph N/A Thunderstorm Mostly Cloudy
10:26 PM 71.6 °F - 66.2 °F 83% 29.92 in 10.0 mi WNW 10.4 mph 19.6 mph 0.03 in Rain , Thunderstorm Light Rain
10:53 PM 71.1 °F - 66.0 °F 84% 29.90 in 10.0 mi West 8.1 mph - 0.03 in Rain Light Rain
11:53 PM 68.0 °F - 66.0 °F 93% 29.89 in 5.0 mi South 6.9 mph - 0.13 in Rain Rain